User: anonymous   Login
Location: Writing-on-Stone Provincial Park
(49.0825°N, 111.6163°W)
Time: 21:45:43
(UTC-06:00)
Language:

BREEZE-M DEB (TANK) - Orbit

View from above orbital plane
View from above orbital plane
View from above satellite
View from above satellite

Ground track
Ground track

The orbit data is extracted from the following two-line orbital elements,

1 29649U 06056B   16177.97524497  .00001820  00000-0  26026-3 0  9996
2 29649  49.4563 134.0794 5396018 299.2410  17.5934  4.98568155169983
Epoch (UTC): 25 June 2016 23:24:21
Eccentricity: 0.5396018
inclination: 49.4563°
perigee height: 285 km
apogee height: 15906 km
right ascension of ascending node: 134.0794°
argument of perigee: 299.2410°
revolutions per day: 4.98568155
mean anomaly at epoch: 17.5934°
orbit number at epoch: 16998

The dashed part of the orbit path shows where the satellite is in the earth's shadow,  

DLR